[[{"header":{"parameterUnit":"m.s-1","parameterCategory":1,"la1":30.2991,"la2":30.254,"lo1":-89.0895,"lo2":-89.0444,"dy":0.0017,"dx":0.0017,"nx":28,"ny":28,"refTime":"2025-07-30T21:00:00:Z","depth":0,"parameterNumber":2,"parameterNumberName":"U-component_of_WINDS"},"data":[0,0,0,0,0,0,0,0,0,0,0,0,0,0,0,0,0,0,0,0,0,0,0,0,0,0,0,0,0,0,0,0,0,0,0,0,0,0,0,0,0,0,0,0,0,0,0,0,0,0,0,0,0,0,0,0,0,0,4.204,4.2041,0,4.2178,4.218,4.2181,4.2116,4.2112,4.2109,4.2106,4.2249,4.2256,4.2263,0,0,0,0,0,0,0,0,0,0,0,0,0,4.172,4.1726,4.204,4.2041,4.2043,4.2178,4.218,4.2182,4.2117,4.2112,4.2108,4.2104,4.2247,4.2255,4.2264,0,0,0,0,0,0,0,0,0,0,0,0,0,4.1859,4.1728,4.2039,4.2027,4.2027,4.2177,4.218,4.2182,4.2117,4.2112,4.2107,4.2102,4.2244,4.2254,4.2265,4.2436,0,0,4.2297,4.2302,0,0,0,0,0,0,0,0,4.1851,4.187,4.2027,4.2028,4.2028,4.2124,4.2119,4.2267,4.2119,4.2083,4.2106,4.2099,4.2212,4.2225,4.2263,4.2443,4.2449,4.2298,4.2305,4.2309,4.2312,0,0,0,0,0,0,0,4.1841,4.1864,4.2094,4.2029,4.203,4.2014,4.2028,4.2147,4.2176,4.2086,4.2081,4.2099,4.2211,4.2253,4.2265,4.2451,4.2298,4.2308,4.2314,4.2318,4.2778,4.2783,0,0,0,0,0,0,4.1832,4.1856,4.209,4.2099,4.1925,4.2025,4.204,4.2099,4.2174,4.218,4.2103,4.2095,4.2237,4.2253,4.227,4.2475,4.2309,4.2319,4.2325,4.2772,4.2779,4.2785,0,0,0,0,0,0,4.1825,4.1853,4.2084,4.1976,4.2005,4.2036,4.2102,4.2104,4.2145,4.2187,4.2192,4.214,4.2233,4.2255,4.2395,4.2479,4.2324,4.2334,4.2765,4.2774,4.2782,4.2885,0,0,0,0,0,0,4.1816,4.1851,4.1917,4.1978,4.2011,4.2207,4.2107,4.2111,4.2164,4.2155,4.2223,4.2229,4.2231,4.2379,4.2406,4.2491,4.2342,4.2758,4.2769,4.2779,4.2875,4.2897,4.2915,0,0,0,0,0,4.1805,4.1941,4.192,4.1949,4.2093,4.2212,4.223,4.2229,4.2171,4.2236,4.2263,4.2227,4.2466,4.2394,4.2423,4.2513,4.2752,4.2766,4.2779,4.2866,4.2892,4.2915,0,0,0,0,0,0,4.1889,4.1949,4.1926,4.2086,4.2144,4.2201,4.2284,4.2258,4.2334,4.2323,4.2319,4.2335,4.2479,4.251,4.243,4.2682,4.26,4.2619,4.2656,4.2682,4.2702,4.2691,4.2351,0,0,0,0,0,4.1926,4.2017,4.2065,4.2201,4.2231,4.2253,4.2304,4.2299,4.2359,4.2383,4.242,4.2481,4.2569,4.2627,4.2711,4.2879,4.2892,4.2955,4.2975,4.2991,4.3008,4.3098,4.3126,4.2828,4.2828,4.2828,0,0,4.2003,4.2047,4.2105,4.2219,4.2263,4.2358,4.2274,4.2378,4.2448,4.2399,4.2533,4.2562,4.2629,4.2783,4.2853,4.2814,4.3093,4.3008,4.3021,4.3029,4.3114,4.3143,4.3168,4.2837,4.2836,4.2834,0,0,4.2192,4.2235,4.2353,4.2399,4.2467,4.248,4.2508,4.2569,4.2586,4.272,4.2685,4.2768,4.2921,4.297,4.3015,4.3222,4.3191,4.3249,4.3355,4.3443,4.3466,4.3487,4.356,4.3586,4.3266,4.3266,4.3266,0,4.228,4.2421,4.2417,4.2523,4.2574,4.2534,4.2652,4.2697,4.279,4.2826,4.278,4.2969,4.3012,4.3176,4.3227,4.3265,4.3296,4.3241,4.3463,4.3484,4.3503,4.3573,4.36,4.3273,4.3272,4.3271,4.3271,0,4.2525,4.2623,4.271,4.2799,4.286,4.2972,4.2985,4.3047,4.3036,4.3054,4.319,4.3239,4.3332,4.3371,4.3361,4.3534,4.3507,4.3463,4.338,4.3538,4.3603,4.363,4.3282,4.328,4.3278,4.3276,0,0,4.2771,4.2855,4.2887,4.2926,4.2998,4.3074,4.3184,4.3274,4.3327,4.3392,4.3484,4.3613,4.3572,4.3623,4.3619,4.3696,4.3855,4.3642,4.3643,4.3679,4.4047,4.4079,4.411,4.3836,4.3841,4.3845,4.4041,0,4.2964,4.3157,4.3156,4.3333,4.3423,4.3386,4.3482,4.3536,4.3556,4.3636,4.3658,4.3749,4.3689,4.3719,4.3794,4.382,4.3929,4.3806,4.3921,4.3925,4.3904,4.4144,4.4179,4.4362,4.4067,4.4071,4.4074,0,4.3216,4.3288,4.3474,4.3531,4.3569,4.3655,4.3737,4.3813,4.3874,4.3883,4.394,4.3923,4.4035,4.395,4.4104,4.402,4.4067,4.4087,4.4094,4.4104,4.4008,4.416,4.442,4.4447,4.4114,4.4111,4.4108,0,4.3375,4.3519,4.3648,4.3683,4.3754,4.3815,4.3847,4.3902,4.3956,4.4028,4.4062,4.4146,4.4192,4.4258,4.4264,4.4202,4.4419,4.4335,4.4429,4.4429,4.4476,4.4473,4.4747,4.4508,4.4508,4.4507,4.4507,0,4.359,4.3706,4.372,4.38,4.3928,4.3926,4.4052,4.4079,4.4129,4.4213,4.4187,4.4266,4.4271,4.4353,4.4359,4.4485,4.4506,4.4516,4.4516,4.4518,4.4517,4.4548,4.4535,4.4515,4.4513,4.4512,4.451,0,4.3789,4.3804,4.3943,4.3998,4.4014,4.4106,4.4153,4.4229,4.4246,4.4353,4.4378,4.4405,4.4499,4.4512,4.4624,4.4628,4.4779,4.4766,4.4758,4.4756,4.4849,4.484,4.5152,4.5192,4.4929,4.4931,4.4933,0,4.3925,4.4013,4.4077,4.4131,4.4166,4.4254,4.4308,4.4309,4.4367,4.4442,4.4509,4.4601,4.4674,4.4828,4.4857,4.4942,4.4931,4.5034,4.4943,4.4942,4.4931,4.4925,4.4933,4.5052,4.5054,4.5057,4.5059,0,4.4165,4.4167,4.4246,4.4328,4.4393,4.4457,4.4518,4.4564,4.4573,4.4639,4.4735,4.4792,4.4904,4.4996,4.508,4.5113,4.5088,4.5087,4.5113,4.5115,4.5106,4.5111,4.4805,4.508,4.5078,4.5076,4.5075,4.5074,4.4336,4.4411,4.4468,4.4556,4.4601,4.4658,4.4732,4.4758,4.4838,4.4929,4.4925,4.5031,4.5088,4.5198,4.5237,4.532,4.5286,4.5324,4.5333,4.5343,4.5351,4.5094,4.5335,4.5335,4.5334,4.5334,4.5333,0,4.4573,4.4607,4.4688,4.4773,4.4842,4.4812,4.4877,4.4937,4.503,4.5086,4.5158,4.5268,4.5356,4.5393,4.5479,4.5538,4.5529,4.5561,4.5556,4.5564,4.5377,4.5345,4.5567,4.5567,4.5567,4.5567,4.5567,4.5567,4.4704,4.483,4.4839,4.4987,4.502,4.5122,4.5162,4.5214,4.5259,4.5382,4.5455,4.5478,4.5526,4.5615,4.5695,4.5703,4.5736,4.5773,4.5776,4.5601,4.5577,4.5555,4.5525,4.5781,4.5781,4.5956,4.5958,4.5959]},{"header":{"parameterUnit":"m.s-1","parameterCategory":1,"la1":30.2991,"la2":30.254,"lo1":-89.0895,"lo2":-89.0444,"dy":0.0017,"dx":0.0017,"nx":28,"ny":28,"refTime":"2025-07-30T21:00:00:Z","depth":0,"parameterNumber":3,"parameterNumberName":"V-component_of_WINDS"},"data":[0,0,0,0,0,0,0,0,0,0,0,0,0,0,0,0,0,0,0,0,0,0,0,0,0,0,0,0,0,0,0,0,0,0,0,0,0,0,0,0,0,0,0,0,0,0,0,0,0,0,0,0,0,0,0,0,0,0,1.1728,1.1729,0,1.1804,1.1805,1.1806,1.1792,1.179,1.1789,1.1788,1.1868,1.1871,1.1875,0,0,0,0,0,0,0,0,0,0,0,0,0,1.1571,1.1574,1.1728,1.1729,1.173,1.1804,1.1805,1.1806,1.1792,1.179,1.1789,1.1787,1.1867,1.1871,1.1875,0,0,0,0,0,0,0,0,0,0,0,0,0,1.1643,1.1575,1.1728,1.1732,1.1733,1.1804,1.1805,1.1807,1.1792,1.179,1.1788,1.1786,1.1866,1.1871,1.1876,1.1949,0,0,1.1891,1.1894,0,0,0,0,0,0,0,0,1.1639,1.1648,1.173,1.1732,1.1733,1.1786,1.1779,1.1854,1.1793,1.177,1.1788,1.1785,1.1843,1.185,1.1868,1.1952,1.1956,1.1892,1.1895,1.1897,1.1899,0,0,0,0,0,0,0,1.1634,1.1645,1.1758,1.1731,1.1733,1.173,1.1738,1.1794,1.1817,1.1772,1.1771,1.178,1.1843,1.1864,1.187,1.1957,1.1892,1.1896,1.1899,1.1901,1.2104,1.2106,0,0,0,0,0,0,1.1627,1.1641,1.1756,1.1761,1.168,1.1734,1.1743,1.1771,1.1816,1.1821,1.1782,1.1779,1.1856,1.1864,1.1873,1.1961,1.1897,1.1902,1.1905,1.2101,1.2104,1.2107,0,0,0,0,0,0,1.1624,1.1638,1.1753,1.1701,1.1715,1.1739,1.1771,1.1774,1.1794,1.1824,1.1828,1.1798,1.1855,1.1866,1.193,1.1964,1.1904,1.1909,1.2099,1.2102,1.2105,1.2138,0,0,0,0,0,0,1.1619,1.1636,1.1664,1.1701,1.1718,1.1808,1.1773,1.1777,1.1803,1.18,1.184,1.1845,1.1854,1.1922,1.1935,1.197,1.1913,1.2096,1.21,1.2104,1.2134,1.2142,1.2149,0,0,0,0,0,1.1614,1.1671,1.1666,1.168,1.1753,1.181,1.1819,1.1828,1.1806,1.1834,1.1853,1.1844,1.1958,1.1929,1.1943,1.198,1.2094,1.2099,1.2104,1.213,1.214,1.2149,0,0,0,0,0,0,1.1639,1.1676,1.1671,1.1741,1.1772,1.1807,1.1843,1.1838,1.1876,1.1872,1.1881,1.189,1.1955,1.1974,1.1941,1.2052,1.2023,1.2031,1.2038,1.2048,1.2055,1.2049,1.1917,0,0,0,0,0,1.1652,1.1695,1.1725,1.1785,1.18,1.1819,1.1844,1.1848,1.188,1.1894,1.1917,1.195,1.1993,1.2021,1.2062,1.2136,1.2145,1.2168,1.2176,1.2182,1.2189,1.2229,1.224,1.2124,1.2123,1.2123,0,0,1.1681,1.1707,1.1733,1.179,1.1815,1.1859,1.183,1.1879,1.1911,1.1901,1.1963,1.1981,1.2018,1.2087,1.2118,1.2104,1.2223,1.2188,1.2193,1.2197,1.2235,1.2246,1.2256,1.2127,1.2126,1.2126,0,0,1.1756,1.1779,1.1831,1.1856,1.1893,1.1905,1.1917,1.1953,1.1964,1.2025,1.2018,1.2058,1.2132,1.2158,1.2181,1.2265,1.2258,1.2278,1.2317,1.2356,1.2365,1.2374,1.2403,1.2414,1.2285,1.2285,1.2285,0,1.1787,1.1853,1.1859,1.1907,1.1933,1.1924,1.1977,1.2001,1.205,1.2067,1.2051,1.2142,1.2167,1.2241,1.2262,1.2281,1.2295,1.2274,1.2363,1.2372,1.2379,1.2408,1.2419,1.2287,1.2287,1.2287,1.2286,0,1.1889,1.1935,1.1973,1.2019,1.2048,1.2099,1.2112,1.2141,1.2142,1.2155,1.2218,1.2246,1.2293,1.2311,1.2312,1.2385,1.2376,1.2361,1.2332,1.2393,1.2419,1.243,1.229,1.2289,1.2289,1.2288,0,0,1.1984,1.2031,1.2045,1.2065,1.2105,1.214,1.219,1.2234,1.2259,1.2293,1.2335,1.2397,1.2383,1.2409,1.2414,1.2447,1.2511,1.2429,1.243,1.2443,1.2594,1.2605,1.2617,1.2506,1.2509,1.251,1.259,0,1.2062,1.2149,1.2155,1.2234,1.2276,1.2268,1.2311,1.234,1.2354,1.2392,1.2407,1.2451,1.243,1.2445,1.2478,1.2496,1.2542,1.2491,1.2546,1.2548,1.2538,1.2631,1.2643,1.2718,1.2601,1.2603,1.2604,0,1.2166,1.2201,1.2284,1.2317,1.2334,1.2373,1.2414,1.245,1.2483,1.249,1.2519,1.2518,1.2569,1.2537,1.2607,1.2572,1.2595,1.2607,1.261,1.2616,1.258,1.264,1.2741,1.2753,1.2621,1.2619,1.2618,0,1.2226,1.2295,1.2353,1.2371,1.241,1.2437,1.2455,1.2485,1.2511,1.2547,1.2564,1.2606,1.2629,1.2661,1.2671,1.2647,1.2741,1.271,1.2749,1.2749,1.277,1.2769,1.2877,1.2784,1.2784,1.2784,1.2784,0,1.2314,1.2365,1.238,1.2416,1.2473,1.2479,1.2535,1.2552,1.2578,1.2617,1.2613,1.265,1.2661,1.2699,1.2708,1.2765,1.2775,1.2783,1.2785,1.2784,1.2783,1.2799,1.2795,1.2787,1.2786,1.2786,1.2785,0,1.2391,1.2404,1.2466,1.2498,1.2507,1.2547,1.2574,1.2609,1.2621,1.2671,1.2683,1.2702,1.2748,1.2761,1.2815,1.2821,1.2888,1.2885,1.2877,1.2877,1.2915,1.2912,1.3039,1.3056,1.2951,1.2952,1.2953,0,1.2446,1.2485,1.252,1.2546,1.2564,1.2605,1.2631,1.2639,1.2666,1.2706,1.2735,1.278,1.2816,1.2888,1.2908,1.2949,1.2948,1.2989,1.2954,1.2951,1.2948,1.2946,1.295,1.2996,1.2997,1.2998,1.2999,0,1.2543,1.2547,1.2584,1.2624,1.2655,1.2687,1.2717,1.2738,1.275,1.2781,1.2827,1.2855,1.291,1.2954,1.2996,1.3014,1.3009,1.3009,1.3021,1.302,1.3014,1.3018,1.2895,1.3007,1.3006,1.3005,1.3005,1.3005,1.2611,1.2645,1.2675,1.2717,1.274,1.2768,1.2802,1.2818,1.2856,1.2901,1.2903,1.2952,1.2983,1.3038,1.3059,1.3098,1.3086,1.3102,1.3107,1.3111,1.3114,1.3007,1.3106,1.3105,1.3105,1.3105,1.3105,0,1.2708,1.2726,1.2764,1.2806,1.2839,1.283,1.2863,1.2891,1.2934,1.2963,1.2998,1.305,1.3092,1.3115,1.3157,1.3184,1.3182,1.3195,1.3193,1.3197,1.3122,1.3108,1.3195,1.3195,1.3195,1.3195,1.3195,1.3195,1.2762,1.2818,1.2826,1.2894,1.2912,1.296,1.2979,1.3005,1.3028,1.3086,1.3121,1.3135,1.3161,1.3205,1.3243,1.3248,1.3264,1.3278,1.3282,1.3212,1.3203,1.3194,1.3181,1.3282,1.3282,1.3354,1.3355,1.3356]}]]